Regional Weather Roundup
Issued by NWS

Home | Current Version | Previous Version | Graphics & Text | Print | Product List | Glossary On
Versions: 1 2 3 4 5 6 7 8 9 10 11 12 13 14 15 16 17 18 19 20 21 22 23 24 25 26 27 28 29 30 31 32 33 34 35 36 37 38 39 40 41 42 43 44 45 46 47 48 49
092
ASUS45 KBOU 301607
RWRCO

WEATHER ROUNDUP FOR COLORADO
NATIONAL WEATHER SERVICE DENVER/BOULDER CO
1000 AM MDT SAT APR 30 2016

NOTE: "FAIR" INDICATES FEW OR NO CLOUDS BELOW 12000 FEET WITH NO
SIGNIFICANT WEATHER AND/OR OBSTRUCTIONS TO VISIBILITY.

COZ001>005-013-030-031-301700-
...NORTHWEST COLORADO...

CITY           SKY/WX    TMP DP  RH WIND       PRES   REMARKS
CRAIG          FAIR      40  32  73 VRB3      29.92S
HAYDEN         FAIR      37  28  70 E7        29.92S
MEEKER         CLOUDY    38  31  76 W6        29.92S
MOUNT WERNER   NOT AVBL
STEAMBOAT SPGS CLOUDY    33  30  87 CALM      29.92R
WALDEN         CLOUDY    30  21  69 N12G18    30.24R WCI  21
$$

COZ006>008-011-301700-
...WEST CENTRAL VALLEYS...

CITY           SKY/WX    TMP DP  RH WIND       PRES   REMARKS
GRAND JUNCTION PTSUNNY   47  33  58 NW9       29.90S
MONTROSE       PTSUNNY   45  34  65 CALM      29.92S
EAGLE          FLURRIES  41  32  70 W6        29.91R
RIFLE          CLOUDY    44  30  57 W7        29.90S
DELTA          NOT AVBL
NUCLA          NOT AVBL
$$

COZ017>023-064>068-301700-
...SOUTHWEST COLORADO...

CITY           SKY/WX    TMP DP  RH WIND       PRES   REMARKS
DURANGO        FAIR      43  32  65 VRB5      29.90S
CORTEZ         CLOUDY    47  36  65 CALM      29.90S
PAGOSA SPRINGS CLOUDY    37  32  82 SE6       29.92S
TELLURIDE      CLOUDY    33  31  90 SW3       29.95R
WOLF CREEK PAS FOG       23  23 100 SW10      29.97R VSB<1/4 WCI  12
$$

COZ009-010-012-014-032>034-037-058>063-301700-
...CENTRAL COLORADO...

CITY           SKY/WX    TMP DP  RH WIND       PRES   REMARKS
ASPEN          CLOUDY    35  29  78 N6        29.89R WCI  30
BUENA VISTA    PTSUNNY   29  24  82 CALM      29.86F
COPPER MTN     NOT AVBL
BERTHOUD PASS  CLOUDY    14   5  67 N10       29.88R WCI   1
COTTONWOOD PAS PTSUNNY   34  28  80 CALM      29.86F
GUNNISON       CLOUDY    37  30  75 SW10      29.90S
KREMMLING      CLOUDY    34  25  69 NW10G16   29.93R WCI  26
LEADVILLE      PTSUNNY   28  19  69 NW13G18   29.86S WCI  17
MONARCH PASS   CLOUDY    21  19  93 SW12G24   30.00R WCI   9
SALIDA         CLOUDY    35  30  82 CALM      29.94F
SUNLIGHT       FOG      N/A N/A N/A W3        29.96R VSB 1/2
WILKERSON PASS CLOUDY   N/A N/A N/A N5        29.90R HAZE
$$

COZ069>075-301700-
...SAN LUIS VALLEY/SANGRE DE CRISTO MOUNTAINS...

CITY           SKY/WX    TMP DP  RH WIND       PRES   REMARKS
ALAMOSA        PTSUNNY   38  33  82 CALM      29.87S
LA VETA PASS   CLOUDY    32  28  86 MISG      29.88S FOG
SAGUACHE       PTSUNNY   34  32  93 CALM      29.88S
$$

COZ035-036-038>040-301700-
...NORTHERN COLORADO FRONT RANGE...

CITY           SKY/WX    TMP DP  RH WIND       PRES   REMARKS
DENVER INTL AP LGT SNOW  33  28  81 N20       29.93R FOG     WCI  21
DMNS CITY PARK   N/A     33  32  96 N9        29.96R WCI  25
AURORA         LGT SNOW  32  32 100 N15       29.94R FOG     WCI  22
FRONT RANGE AP LGT SNOW  32  30  93 N21       29.93R WCI  20
ERIE MUNI ARPT CLOUDY    37  33  88 N17       29.96R
BOULDER MUN AP LGT SNOW  36  34  93 N12       29.95S
CENTENNIAL     LGT SNOW  32  29  88 N16       29.93R FOG     WCI  21
BROOMFIELD     LGT SNOW  32  32 100 N15       29.95R VSB 1   WCI  22
FORT COLLINS   CLOUDY    36  30  80 N18       29.97R
LONGMONT       CLOUDY    40  32  73 N17G24    29.97S HAZE
$$

COZ041-046-047-076>085-087-088-301700-
...PIKES PEAK/PALMER DIVIDE AND SOUTHERN FOOTHILLS...

CITY           SKY/WX    TMP DP  RH WIND       PRES   REMARKS
COLO. SPRINGS  PTSUNNY   35  25  66 N21G31    29.89S WCI  24
A. F. ACADEMY  FLURRIES  32  27  80 N20G28    29.89R WCI  20
SCHRIEVER AFB  NOT AVBL
ELLICOTT       NOT AVBL
FALCON         CLOUDY    33  24  70 N17G32    29.88R WCI  22
FORT CARSON    CLOUDY    37  28  71 N17G24    29.88S
LIMON          FLURRIES  32  29  88 N25G33    29.88R WCI  19
MONUMENT HILL  CLOUDY    28  25  86 N17G28    29.91R WCI  16
TRINIDAD       CLOUDY    36  30  79 SW6       29.90R
$$

COZ042>045-048>051-090-091-301700-
...NORTHEAST COLORADO...

CITY           SKY/WX    TMP DP  RH WIND       PRES   REMARKS
GREELEY ARPT   CLOUDY    36  32  87 N15       29.96S
AKRON          SNOW      32  30  92 N22       29.87S VSB 1/2 WCI  19
BURLINGTON     CLOUDY    34  30  85 N17       29.84S WCI  23
WRAY           NOT AVBL
STERLING       LGT SNOW  34  34 100 N17G25    29.89R WCI  23
HOLYOKE        NOT AVBL
FORT MORGAN    LGT SNOW  33  32  96 N14G20    29.93R WCI  23
$$

COZ086-089-092>099-301700-
...SOUTHEAST COLORADO...

CITY           SKY/WX    TMP DP  RH WIND       PRES   REMARKS
PUEBLO         CLOUDY    44  32  62 N10       29.90R
LA JUNTA       CLOUDY    44  32  62 N18       29.91R
LAMAR          CLOUDY    44  33  65 NW18      29.87R
SPRINGFIELD      N/A     44  33  65 NW24G31   29.86R
$$




USA.gov is the U.S. government's official web portal to all federal, state and local government web resources and services.